CW3702 Weather Reports


time (UTC)temp
F
wind
direction
speed
knots
gust
knots
rain 1hr
in
rain 24hr
in
rain mn
in
humidity
%
barometer
mb
20260906213035 82 130 6.1 16.5 0.00 0.00 0.00 28 1021.8
20260906212520 81 120 8.7 16.5 0.00 0.00 0.00 30 1021.9
20260906212019 81 141 8.7 17.4 0.00 0.00 0.00 29 1021.9
20260906211536 81 144 8.7 17.4 0.00 0.00 0.00 30 1021.8
20260906211017 81 134 10.4 17.4 0.00 0.00 0.00 30 1021.9
20260906210518 81 85 9.6 18.2 0.00 0.00 0.00 33 1021.8
20260906210044 81 123 9.6 18.2 0.00 0.00 0.00 31 1022.0
20260906205516 82 100 9.6 16.5 0.00 0.00 0.00 30 1022.0
20260906205015 80 123 9.6 16.5 0.00 0.00 0.00 32 1022.1
20260906204537 80 105 4.3 14.8 0.00 0.00 0.00 32 1022.3
20260906204018 81 136 7.8 14.8 0.00 0.00 0.00 32 1022.5
20260906203516 80 102 7.8 15.6 0.00 0.00 0.00 32 1022.5
20260906203040 80 126 7.8 15.6 0.00 0.00 0.00 31 1022.5
20260906202518 81 128 8.7 14.8 0.00 0.00 0.00 30 1022.7
20260906202016 81 93 7.8 12.2 0.00 0.00 0.00 29 1022.5
20260906201600 81 111 5.2 11.3 0.00 0.00 0.00 29 1022.5
20260906201017 80 162 5.2 13.0 0.00 0.00 0.00 31 1022.6
20260906200518 80 126 2.6 13.0 0.00 0.00 0.00 31 1022.5
20260906200036 81 128 8.7 13.0 0.00 0.00 0.00 28 1022.7
20260906195518 81 121 7.8 13.9 0.00 0.00 0.00 27 1022.5
20260906195018 80 130 7.8 13.9 0.00 0.00 0.00 31 1022.7
20260906194540 82 104 8.7 16.5 0.00 0.00 0.00 27 1022.6
20260906194019 82 131 8.7 17.4 0.00 0.00 0.00 28 1022.8
20260906193516 82 101 11.3 17.4 0.00 0.00 0.00 27 1022.8
20260906193036 82 92 2.6 14.8 0.00 0.00 0.00 28 1022.9
20260906192517 81 223 6.1 14.8 0.00 0.00 0.00 26 1023.0
20260906192020 81 101 7.0 14.8 0.00 0.00 0.00 28 1023.0
20260906191536 81 163 5.2 15.6 0.00 0.00 0.00 27 1023.0
20260906191021 81 135 9.6 15.6 0.00 0.00 0.00 28 1023.1
20260906190518 81 142 7.0 12.2 0.00 0.00 0.00 28 1023.2
20260906190039 81 123 6.1 13.0 0.00 0.00 0.00 27 1023.2
20260906185524 81 97 8.7 13.0 0.00 0.00 0.00 29 1023.4
20260906185021 80 96 9.6 13.0 0.00 0.00 0.00 29 1023.4
20260906184545 81 117 7.8 13.0 0.00 0.00 0.00 27 1023.5
20260906184016 80 138 7.0 13.0 0.00 0.00 0.00 30 1023.7
20260906183516 80 86 6.1 13.0 0.00 0.00 0.00 29 1023.8
20260906183041 80 111 7.0 12.2 0.00 0.00 0.00 28 1023.8
20260906182515 80 94 6.1 13.0 0.00 0.00 0.00 28 1023.9
20260906182021 80 117 6.1 13.9 0.00 0.00 0.00 29 1023.9
20260906181552 80 156 7.8 13.9 0.00 0.00 0.00 29 1024.0
20260906181021 80 134 7.8 13.9 0.00 0.00 0.00 28 1024.0
20260906180520 80 113 7.0 11.3 0.00 0.00 0.00 28 1024.1
20260906180035 80 55 7.0 11.3 0.00 0.00 0.00 28 1024.2
20260906175520 80 105 5.2 12.2 0.00 0.00 0.00 27 1024.2
20260906175022 80 123 3.5 12.2 0.00 0.00 0.00 28 1024.2
20260906174537 80 110 1.7 9.6 0.00 0.00 0.00 28 1024.3
20260906174019 80 116 5.2 9.6 0.00 0.00 0.00 29 1024.2
20260906173515 79 71 3.5 14.8 0.00 0.00 0.00 29 1024.4
20260906173034 79 87 7.8 14.8 0.00 0.00 0.00 31 1024.2
20260906172516 78 53 4.3 13.9 0.00 0.00 0.00 31 1024.4
20260906172015 78 29 2.6 12.2 0.00 0.00 0.00 34 1024.4
20260906171537 77 311 4.3 12.2 0.00 0.00 0.00 33 1024.6
20260906171020 76 55 4.3 10.4 0.00 0.00 0.00 35 1024.7
20260906170519 76 5 3.5 9.6 0.00 0.00 0.00 36 1024.7
20260906170034 76 38 4.3 9.6 0.00 0.00 0.00 35 1024.8
20260906165522 76 5 5.2 8.7 0.00 0.00 0.00 36 1024.8
20260906165016 76 17 4.3 9.6 0.00 0.00 0.00 36 1024.9
20260906164535 76 33 6.1 9.6 0.00 0.00 0.00 36 1024.8
20260906164018 76 5 2.6 8.7 0.00 0.00 0.00 36 1024.9
20260906163518 75 38 3.5 7.8 0.00 0.00 0.00 36 1024.9
20260906163040 75 76 3.5 7.8 0.00 0.00 0.00 37 1025.0
20260906162521 75 346 5.2 7.8 0.00 0.00 0.00 36 1024.9
20260906162018 74 355 3.5 7.8 0.00 0.00 0.00 37 1024.9
20260906161542 74 58 2.6 8.7 0.00 0.00 0.00 37 1024.9
20260906161020 74 15 3.5 8.7 0.00 0.00 0.00 37 1024.9
20260906160519 74 52 4.3 8.7 0.00 0.00 0.00 37 1025.0
20260906160039 73 57 4.3 8.7 0.00 0.00 0.00 37 1025.0
20260906155519 73 15 0.9 7.0 0.00 0.00 0.00 39 1024.9
20260906155019 73 0 2.6 7.0 0.00 0.00 0.00 39 1024.9
20260906154538 73 34 2.6 6.1 0.00 0.00 0.00 41 1024.9
20260906154016 72 82 2.6 6.1 0.00 0.00 0.00 40 1024.8
20260906153516 72 311 2.6 7.0 0.00 0.00 0.00 41 1024.8
20260906153036 71 344 3.5 7.8 0.00 0.00 0.00 41 1024.8
20260906152518 71 5 4.3 7.8 0.00 0.00 0.00 42 1024.7
20260906152021 71 12 4.3 7.8 0.00 0.00 0.00 43 1024.8
20260906151535 71 60 3.5 7.8 0.00 0.00 0.00 42 1025.0
20260906151020 71 11 2.6 7.8 0.00 0.00 0.00 42 1024.9
20260906150520 71 49 2.6 7.0 0.00 0.00 0.00 41 1024.8
20260906150037 70 360 1.7 4.3 0.00 0.00 0.00 41 1024.7
20260906145518 69 9 0.9 4.3 0.00 0.00 0.00 44 1024.7
20260906145019 69 0 0.9 4.3 0.00 0.00 0.00 44 1024.7
20260906144537 68 346 0.9 7.0 0.00 0.00 0.00 45 1024.8
20260906144016 68 355 3.5 7.0 0.00 0.00 0.00 46 1024.8
20260906143519 67 30 1.7 6.1 0.00 0.00 0.00 48 1024.8
20260906143040 67 0 2.6 6.1 0.00 0.00 0.00 48 1024.7
20260906142519 67 300 1.7 5.2 0.00 0.00 0.00 48 1024.6
20260906142018 66 324 2.6 5.2 0.00 0.00 0.00 48 1024.6
20260906141536 66 341 3.5 5.2 0.00 0.00 0.00 48 1024.6
20260906141024 66 322 0.9 3.5 0.00 0.00 0.00 50 1024.7
20260906140519 65 0 0.9 1.7 0.00 0.00 0.00 51 1024.7
20260906140047 65 0 0.0 1.7 0.00 0.00 0.00 51 1024.7
20260906135520 64 32 0.0 1.7 0.00 0.00 0.00 53 1024.7
20260906135019 63 0 0.0 1.7 0.00 0.00 0.00 53 1024.5
20260906134534 62 0 0.0 1.7 0.00 0.00 0.00 56 1024.5
20260906134016 61 0 0.0 1.7 0.00 0.00 0.00 58 1024.5
20260906133518 60 32 0.0 1.7 0.00 0.00 0.00 61 1024.4
20260906133039 60 0 0.0 2.6 0.00 0.00 0.00 64 1024.4
20260906132520 59 0 0.0 2.6 0.00 0.00 0.00 64 1024.3
20260906132019 57 0 0.0 2.6 0.00 0.00 0.00 67 1024.3
20260906131533 55 190 0.9 2.6 0.00 0.00 0.00 69 1024.2
20260906131015 55 0 0.9 2.6 0.00 0.00 0.00 69 1024.1
20260906130519 55 0 0.0 1.7 0.00 0.00 0.00 68 1024.0
20260906130035 54 0 0.0 3.5 0.00 0.00 0.00 71 1024.1
20260906125518 53 0 0.0 3.5 0.00 0.00 0.00 73 1024.2
20260906125017 52 244 1.7 3.5 0.00 0.00 0.00 74 1024.0
20260906124538 52 0 0.0 0.0 0.00 0.00 0.00 74 1024.1
20260906124016 52 0 0.0 0.0 0.00 0.00 0.00 75 1024.3
20260906123519 51 0 0.0 0.0 0.00 0.00 0.00 75 1024.1
20260906123036 51 0 0.0 0.0 0.00 0.00 0.00 75 1024.0
20260906122518 52 0 0.0 0.0 0.00 0.00 0.00 75 1024.1
20260906122020 52 0 0.0 1.7 0.00 0.00 0.00 76 1024.0
20260906121536 51 0 0.0 1.7 0.00 0.00 0.00 77 1024.1
20260906121015 51 196 0.0 0.9 0.00 0.00 0.00 78 1024.0
20260906120516 50 0 0.0 0.9 0.00 0.00 0.00 78 1023.9
20260906120034 50 0 0.0 0.9 0.00 0.00 0.00 78 1024.2
20260906115521 50 0 0.0 0.0 0.00 0.00 0.00 79 1024.0
20260906115018 50 0 0.0 0.9 0.00 0.00 0.00 78 1024.0
20260906114542 50 0 0.0 0.9 0.00 0.00 0.00 77 1023.9
20260906114019 51 0 0.0 1.7 0.00 0.00 0.00 78 1023.9
20260906113519 50 0 0.0 1.7 0.00 0.00 0.00 77 1023.9
20260906113035 51 0 0.0 1.7 0.00 0.00 0.00 77 1023.9
20260906112519 50 0 0.0 0.9 0.00 0.00 0.00 77 1023.9
20260906112019 50 0 0.0 0.9 0.00 0.00 0.00 76 1023.9
20260906111535 51 0 0.0 2.6 0.00 0.00 0.00 74 1023.8
20260906111016 52 0 0.0 2.6 0.00 0.00 0.00 74 1023.7
20260906110518 51 209 1.7 2.6 0.00 0.00 0.00 76 1023.6
20260906110036 51 0 0.0 3.5 0.00 0.00 0.00 77 1023.7
20260906105519 51 0 0.0 4.3 0.00 0.00 0.00 77 1023.7
20260906105021 51 217 2.6 4.3 0.00 0.00 0.00 77 1023.8
20260906104536 50 215 0.0 4.3 0.00 0.00 0.00 78 1023.8
20260906104022 50 0 0.0 4.3 0.00 0.00 0.00 77 1023.8
20260906103518 51 219 2.6 4.3 0.00 0.00 0.00 75 1023.8
20260906103033 52 0 0.0 2.6 0.00 0.00 0.00 75 1023.9
20260906102518 52 0 0.0 2.6 0.00 0.00 0.00 75 1023.9
20260906102018 52 196 1.7 2.6 0.00 0.00 0.00 75 1023.9
20260906101536 53 209 0.9 2.6 0.00 0.00 0.00 74 1024.0
20260906101020 54 0 0.0 0.0 0.00 0.00 0.00 74 1023.9
20260906100518 54 0 0.0 0.0 0.00 0.00 0.00 73 1024.0
20260906100038 55 0 0.0 0.0 0.00 0.00 0.00 72 1024.0
20260906095520 55 0 0.0 3.5 0.00 0.00 0.00 72 1024.2
20260906095019 55 0 0.0 3.5 0.00 0.00 0.00 72 1024.2
20260906094546 55 209 1.7 3.5 0.00 0.00 0.00 72 1024.4
20260906094019 55 187 0.9 4.3 0.00 0.00 0.00 72 1024.3
20260906093519 56 233 1.7 4.3 0.00 0.00 0.00 70 1024.2
20260906093039 58 279 0.9 3.5 0.00 0.00 0.00 67 1024.2
20260906092518 58 0 0.0 0.0 0.00 0.00 0.00 67 1024.0
20260906092016 59 0 0.0 0.0 0.00 0.00 0.00 67 1024.0
20260906091540 60 0 0.0 0.0 0.00 0.00 0.00 64 1023.8
20260906091016 60 0 0.0 0.0 0.00 0.00 0.00 63 1023.9
20260906090520 60 0 0.0 0.0 0.00 0.00 0.00 64 1023.8
20260906090039 60 0 0.0 0.0 0.00 0.00 0.00 65 1023.9
20260906085520 60 0 0.0 0.0 0.00 0.00 0.00 66 1023.9
20260906085019 61 0 0.0 0.0 0.00 0.00 0.00 65 1023.9
20260906084541 61 0 0.0 0.0 0.00 0.00 0.00 64 1023.8
20260906084019 61 0 0.0 0.0 0.00 0.00 0.00 67 1023.9
20260906083518 61 0 0.0 0.0 0.00 0.00 0.00 69 1023.9
20260906083037 61 0 0.0 0.9 0.00 0.00 0.00 69 1023.9
20260906082518 61 0 0.0 1.7 0.00 0.00 0.00 71 1024.0
20260906082019 61 0 0.0 1.7 0.00 0.00 0.00 71 1023.9
20260906081542 61 130 0.0 1.7 0.00 0.00 0.00 73 1023.9
20260906081018 61 0 0.0 1.7 0.00 0.00 0.00 73 1024.0
20260906080519 60 0 0.0 1.7 0.00 0.00 0.00 74 1024.1
20260906080039 60 0 0.0 1.7 0.00 0.00 0.00 74 1024.0
20260906075519 60 0 0.0 3.5 0.00 0.00 0.00 74 1024.0
20260906075023 60 0 0.0 3.5 0.00 0.00 0.00 74 1024.1
20260906074543 60 109 2.6 3.5 0.00 0.00 0.00 74 1024.1
20260906074019 60 0 0.0 2.6 0.00 0.00 0.00 75 1024.2
20260906073521 60 132 0.9 2.6 0.00 0.00 0.00 75 1024.2
20260906073041 60 0 0.0 2.6 0.00 0.00 0.00 75 1024.1
20260906072519 60 128 0.0 4.3 0.00 0.00 0.00 75 1024.2
20260906072017 60 205 0.9 4.3 0.00 0.00 0.00 75 1024.2
20260906071540 60 219 2.6 4.3 0.00 0.00 0.00 75 1024.2
20260906071020 60 253 0.9 1.7 0.00 0.00 0.00 75 1024.2
20260906070516 60 289 0.0 1.7 0.00 0.00 0.00 74 1024.2
20260906070040 60 0 0.0 0.9 0.00 0.00 0.00 74 1024.3
20260906065519 60 289 0.0 0.9 0.00 0.00 0.00 74 1024.2
20260906065018 60 0 0.0 0.0 0.00 0.00 0.00 73 1024.3
20260906064539 61 0 0.0 1.7 0.00 0.00 0.00 73 1024.5
20260906064020 61 0 0.0 1.7 0.00 0.00 0.00 73 1024.4
20260906063517 61 289 0.0 1.7 0.00 0.00 0.00 74 1024.4
20260906063037 61 0 0.0 3.5 0.00 0.00 0.00 73 1024.5
20260906062518 61 289 0.9 6.1 0.00 0.00 0.00 73 1024.4
20260906062019 61 165 1.7 6.1 0.00 0.00 0.00 72 1024.6
20260906061542 62 114 0.9 6.1 0.00 0.00 0.00 71 1024.6
20260906061019 61 0 0.0 4.3 0.00 0.00 0.00 72 1024.6
20260906060518 61 0 1.7 5.2 0.00 0.00 0.00 73 1024.4
20260906060058 60 0 1.7 5.2 0.00 0.00 0.00 75 1024.4
20260906055519 59 313 2.6 5.2 0.00 0.00 0.00 76 1024.4
20260906055020 59 0 0.0 2.6 0.00 0.00 0.00 76 1024.3
20260906054539 58 198 1.7 2.6 0.00 0.00 0.00 76 1024.1
20260906054019 58 198 1.7 2.6 0.00 0.00 0.00 75 1024.1
20260906053521 59 198 0.9 2.6 0.00 0.00 0.00 74 1024.0
20260906053037 59 198 0.0 1.7 0.00 0.00 0.00 73 1023.9
20260906052522 60 0 0.0 3.5 0.00 0.00 0.00 73 1023.9
20260906052019 60 0 0.0 3.5 0.00 0.00 0.00 72 1023.9
20260906051535 61 198 0.9 3.5 0.00 0.00 0.00 70 1023.9
20260906051016 62 172 0.9 4.3 0.00 0.00 0.00 70 1024.0
20260906050516 62 186 1.7 4.3 0.00 0.00 0.00 70 1024.0
20260906050039 62 193 0.9 4.3 0.00 0.00 0.00 69 1023.9
20260906045521 62 184 0.9 4.3 0.00 0.00 0.00 68 1024.0
20260906045022 63 175 1.7 4.3 0.00 0.00 0.00 67 1024.1
20260906044536 63 219 0.9 3.5 0.00 0.00 0.00 66 1024.1
20260906044024 64 197 0.0 4.3 0.00 0.00 0.00 64 1024.2
20260906043520 65 213 2.6 6.1 0.00 0.00 0.00 63 1024.4
20260906043039 66 212 1.7 7.0 0.00 0.00 0.00 63 1024.4
20260906042516 66 169 2.6 7.8 0.00 0.00 0.00 62 1024.3
20260906042019 66 195 3.5 8.7 0.00 0.00 0.00 63 1024.4
20260906041537 65 186 4.3 8.7 0.00 0.00 0.00 64 1024.4
20260906041019 64 207 2.6 7.0 0.00 0.00 0.00 66 1024.5
20260906040516 65 179 1.7 5.2 0.00 0.00 0.00 65 1024.4
20260906040041 66 178 2.6 5.2 0.00 0.00 0.00 63 1024.3
20260906035528 66 205 1.7 6.1 0.00 0.00 0.00 62 1024.4
20260906035017 66 159 0.9 6.1 0.00 0.00 0.00 62 1024.3
20260906034539 66 128 1.7 6.1 0.00 0.00 0.00 63 1024.4
20260906034018 67 161 0.9 7.0 0.00 0.00 0.00 63 1024.3
20260906033518 67 126 2.6 7.0 0.00 0.00 0.00 63 1024.4
20260906033035 67 144 1.7 7.0 0.00 0.00 0.00 62 1024.3
20260906032518 68 132 2.6 7.0 0.00 0.00 0.00 61 1024.3
20260906032022 68 143 2.6 8.7 0.00 0.00 0.00 61 1024.2
20260906031605 68 137 3.5 9.6 0.00 0.00 0.00 60 1024.2
20260906031018 68 116 3.5 9.6 0.00 0.00 0.00 60 1024.2
20260906030518 68 130 2.6 7.8 0.00 0.00 0.00 60 1024.0
20260906030039 69 107 3.5 8.7 0.00 0.00 0.00 60 1023.9
20260906025524 69 132 4.3 9.6 0.00 0.00 0.00 59 1023.7
20260906025018 69 111 5.2 11.3 0.00 0.00 0.00 58 1023.7
20260906024541 69 99 4.3 11.3 0.00 0.00 0.00 58 1023.8
20260906024019 69 145 5.2 9.6 0.00 0.00 0.00 57 1023.7
20260906023519 69 110 5.2 9.6 0.00 0.00 0.00 57 1023.6
20260906023053 68 110 4.3 7.8 0.00 0.00 0.00 55 1023.7
20260906022518 67 117 1.7 7.0 0.00 0.00 0.00 49 1023.7
20260906022018 66 110 1.7 7.0 0.00 0.00 0.00 44 1023.7
20260906021535 65 113 4.3 7.0 0.00 0.00 0.00 42 1023.6
20260906021022 66 0 0.0 3.5 0.00 0.00 0.00 41 1023.2
20260906020521 67 271 1.7 2.6 0.00 0.00 0.00 40 1023.1
20260906020047 68 271 0.9 2.6 0.00 0.00 0.00 38 1023.0
20260906015519 69 0 0.0 0.9 0.00 0.00 0.00 35 1022.9
20260906015019 70 0 0.0 1.7 0.00 0.00 0.00 35 1022.9
20260906014535 70 0 0.0 1.7 0.00 0.00 0.00 33 1022.8
20260906014021 71 271 0.9 1.7 0.00 0.00 0.00 33 1022.8
20260906013519 72 0 0.0 0.0 0.00 0.00 0.00 32 1022.9
20260906013038 73 0 0.0 0.0 0.00 0.00 0.00 32 1022.8
20260906012515 73 0 0.0 1.7 0.00 0.00 0.00 31 1023.0
20260906012020 74 0 0.0 2.6 0.00 0.00 0.00 30 1023.0
20260906011539 75 271 0.9 3.5 0.00 0.00 0.00 29 1023.0
20260906011018 76 271 1.7 3.5 0.00 0.00 0.00 27 1023.0
20260906010517 76 271 1.7 2.6 0.00 0.00 0.00 27 1023.0
20260906010039 77 271 0.0 2.6 0.00 0.00 0.00 26 1023.1
20260906005519 77 0 0.0 2.6 0.00 0.00 0.00 27 1023.2
20260906005016 77 271 0.9 3.5 0.00 0.00 0.00 27 1023.2
20260906004541 76 271 0.9 6.1 0.00 0.00 0.00 26 1023.4
20260906004021 76 271 1.7 7.8 0.00 0.00 0.00 27 1023.2
20260906003516 76 265 4.3 7.8 0.00 0.00 0.00 27 1023.2
20260906003033 76 286 4.3 7.8 0.00 0.00 0.00 27 1023.2
20260906002517 76 279 3.5 7.8 0.00 0.00 0.00 26 1023.1
20260906002019 76 267 4.3 8.7 0.00 0.00 0.00 26 1023.1
20260906001543 76 263 6.1 9.6 0.00 0.00 0.00 26 1023.1
20260906001023 77 281 6.1 9.6 0.00 0.00 0.00 26 1023.1
20260906000519 77 274 4.3 7.8 0.00 0.00 0.00 26 1023.1
20260906000037 78 273 4.3 7.8 0.00 0.00 0.00 25 1023.0
20260905235516 79 308 1.7 4.3 0.00 0.00 0.00 24 1023.1
20260905235024 79 311 1.7 4.3 0.00 0.00 0.00 22 1023.1
20260905234536 79 327 2.6 4.3 0.00 0.00 0.00 23 1023.1
20260905234016 79 298 2.6 4.3 0.00 0.00 0.00 23 1023.0
20260905233518 79 311 1.7 4.3 0.00 0.00 0.00 23 1023.0
20260905233040 80 0 0.9 4.3 0.00 0.00 0.00 23 1023.0
20260905232523 81 348 0.9 4.3 0.00 0.00 0.00 22 1022.9
20260905232021 81 360 2.6 4.3 0.00 0.00 0.00 21 1022.9
20260905231539 81 360 1.7 4.3 0.00 0.00 0.00 21 1022.9
20260905231021 81 360 1.7 5.2 0.00 0.00 0.00 22 1022.8
20260905230519 81 360 0.0 5.2 0.00 0.00 0.00 21 1022.9
20260905230034 81 360 2.6 5.2 0.00 0.00 0.00 21 1022.9
20260905225519 81 0 0.9 4.3 0.00 0.00 0.00 21 1022.8
20260905225016 80 260 0.9 3.5 0.00 0.00 0.00 22 1022.8
20260905224535 79 313 0.9 3.5 0.00 0.00 0.00 23 1023.0
20260905224027 79 183 0.0 4.3 0.00 0.00 0.00 24 1023.1
20260905223517 78 223 1.7 4.3 0.00 0.00 0.00 24 1023.3
20260905223038 78 240 2.6 4.3 0.00 0.00 0.00 24 1023.2
20260905222520 79 225 1.7 4.3 0.00 0.00 0.00 24 1023.1
20260905222024 79 209 1.7 7.8 0.00 0.00 0.00 25 1023.1
20260905221539 79 149 2.6 7.8 0.00 0.00 0.00 24 1023.1
20260905221019 79 161 3.5 7.8 0.00 0.00 0.00 24 1023.3
20260905220518 79 113 0.9 7.0 0.00 0.00 0.00 23 1023.1
20260905220036 80 134 3.5 7.0 0.00 0.00 0.00 23 1023.1
20260905215516 80 81 1.7 7.8 0.00 0.00 0.00 22 1023.1
20260905215019 80 352 1.7 7.8 0.00 0.00 0.00 22 1023.2
20260905214538 80 33 3.5 7.8 0.00 0.00 0.00 22 1023.2
20260905214021 79 51 3.5 7.0 0.00 0.00 0.00 23 1023.4
20260905213518 79 33 2.6 7.0 0.00 0.00 0.00 23 1023.4
20260905213039 79 32 3.5 7.0 0.00 0.00 0.00 22 1023.5